Retour au catalogue

STARLINK-34396

ActifCommunicationsVLEO
NORAD 64436·PAYLOAD·🇺🇸 United States

Lancé Jun 17, 2025 depuis Vandenberg Space Force Base

Loading…

Prochains Passages (prochaines 24 heures)

TLE

FraisSource: CelesTrak SupGP

Époque: Sep 15, 2026, 03:49 UTC

1 64436C 25129AA  26258.15951389  .00025115  00000+0  87301-3 0  2589
2 64436  69.9992 315.2794 0003448 265.9675 120.4877 15.29589769    10

Suivez STARLINK-34396 en temps réel avec AllMySat

Download on the App Store